Theta_e
293 294 294 294 294 294 295 296 297 299 299 300 304 304 304 304 305 305 305 306 306 306 305 303 303 304 303 302 302 302 301 299 298 298 296 295 295 296 295 295 293 292 291 293 291 292 292 293 292 292 292 292 291 290 289 289 288 287 286 286 288 290
292 294 295 295 295 294 295 297 298 299 299 299 299 300 301 303 304 303 303 301 303 302 303 302 303 302 302 300 300 299 298 297 297 296 295 294 293 293 292 291 291 290 290 289 290 289 289 290 289 289 289 288 288 286 288 285 286 286 286 287 285 287
292 292 293 293 292 292 293 297 298 297 299 299 300 302 302 302 303 304 302 301 300 302 302 301 301 299 298 297 296 296 295 294 294 294 292 291 290 289 290 290 290 290 289 289 288 289 288 289 287 286 286 286 286 285 285 285 285 286 285 285 286 284
291 292 291 291 290 291 292 293 296 296 298 299 301 302 302 302 302 303 301 301 301 301 299 298 297 296 296 295 294 293 292 291 291 289 290 290 288 289 289 290 288 288 289 289 289 288 287 288 289 285 286 286 286 285 285 283 285 285 285 284 286 286
291 290 290 290 290 290 290 292 294 296 296 298 300 301 300 301 300 301 301 300 299 297 296 294 292 292 292 292 290 290 290 289 288 288 290 289 288 287 288 288 288 288 288 287 286 288 287 287 286 285 286 285 285 286 285 284 285 286 286 285 285 285
289 288 289 290 289 289 291 292 291 294 295 297 298 298 297 297 298 298 298 295 293 292 292 291 290 290 290 290 289 289 288 288 288 287 288 288 288 288 286 287 288 287 287 287 287 287 286 287 286 285 284 286 285 286 287 286 285 285 286 286 285 284
290 292 292 291 290 289 290 292 293 293 292 293 295 294 293 293 293 294 293 292 291 290 290 289 289 289 288 288 288 287 287 287 287 287 287 287 287 287 287 287 286 287 288 288 287 287 287 286 285 286 286 285 284 286 286 286 285 285 285 285 284 285
291 290 290 291 291 291 291 290 291 291 291 291 291 292 291 291 291 292 291 291 290 289 288 288 288 288 288 287 287 287 287 287 287 286 286 287 287 286 286 287 286 287 287 286 286 286 285 285 285 285 284 284 284 283 283 283 284 284 284 283 283 283
291 291 290 291 290 290 291 291 291 290 290 290 289 290 291 290 290 290 290 289 289 288 287 287 287 287 287 287 286 286 286 286 286 286 286 285 286 286 286 285 285 284 286 285 286 286 286 285 284 284 283 284 284 284 283 283 282 283 282 283 282 282
291 291 290 290 290 289 289 289 290 290 290 290 289 289 289 289 289 288 288 288 287 287 286 286 286 286 286 286 286 286 285 285 285 285 285 285 285 285 285 285 285 284 285 284 285 284 284 284 283 283 283 283 283 283 283 282 282 281 281 281 281 281
292 291 290 289 288 288 288 288 288 287 287 288 288 288 288 288 288 287 287 287 287 286 286 285 285 285 285 285 285 285 285 285 284 284 285 285 285 285 284 284 284 284 284 284 284 284 284 284 284 284 284 284 284 283 283 282 282 281 281 281 281 281
291 290 289 289 289 289 288 288 288 288 288 288 287 287 287 287 287 287 287 286 286 285 285 285 285 285 285 285 285 284 284 284 284 284 284 284 284 283 283 284 283 284 284 283 283 282 283 283 283 285 289 290 285 284 283 283 282 281 280 280 280 280
290 289 289 290 290 290 289 289 289 288 288 288 287 287 287 287 287 287 287 286 285 285 285 285 284 284 284 284 284 283 283 283 283 283 283 283 282 283 282 283 283 282 282 282 282 282 282 283 283 288 290 290 290 286 283 282 282 281 280 280 279 279
291 291 291 290 290 289 289 289 289 288 288 288 287 287 287 287 287 286 286 285 285 285 284 284 284 284 283 283 283 283 283 283 283 282 282 282 282 281 282 282 282 282 282 282 282 282 282 282 286 288 288 289 289 289 284 281 281 281 280 279 278 279
292 292 292 291 290 290 290 290 289 289 289 288 287 286 286 286 286 286 285 285 284 284 284 283 283 283 283 283 282 282 282 282 282 281 281 281 280 281 281 281 281 281 281 282 281 281 281 280 286 287 288 288 288 289 286 281 280 279 279 278 277 277
293 293 292 292 291 291 290 289 289 289 288 287 286 286 286 286 285 285 285 284 284 284 283 283 283 282 282 282 282 281 281 281 281 280 280 280 280 281 280 280 280 281 281 281 280 280 280 280 285 286 287 287 288 287 285 279 279 278 278 277 277 277
293 292 291 290 290 289 289 288 288 287 286 286 286 286 285 285 285 285 284 284 283 283 282 282 282 282 281 281 281 281 281 281 280 280 280 280 280 280 280 280 280 280 279 279 279 279 279 280 284 285 286 286 287 286 284 278 279 277 277 277 277 276
293 292 292 291 289 289 289 288 287 287 286 286 286 285 285 285 285 284 284 283 283 282 282 282 282 282 281 281 281 281 280 280 280 280 279 278 278 278 278 278 279 278 278 278 278 278 278 279 283 284 285 285 286 285 279 277 277 276 276 276 276 277
295 293 291 289 289 288 288 287 287 286 285 285 285 284 284 284 284 284 283 283 282 282 282 282 282 281 281 280 280 280 280 279 278 278 277 278 278 278 278 277 277 277 277 277 277 277 277 277 280 283 284 284 285 282 275 275 273 274 275 276 277 277
289 289 290 289 288 288 288 287 287 286 285 284 284 284 284 284 284 283 283 282 282 282 282 282 281 281 280 280 280 279 279 278 278 278 277 278 278 277 277 277 277 277 277 276 276 277 276 275 278 282 283 283 284 282 275 274 273 272 274 277 278 279
290 288 288 288 287 287 287 287 286 285 285 284 284 284 283 283 283 283 282 282 281 281 281 281 280 280 279 279 279 278 278 278 278 277 276 276 276 276 276 276 276 276 277 277 276 278 276 276 277 280 282 283 283 281 274 274 272 273 276 278 278 279
287 287 288 288 288 287 286 286 286 285 285 284 284 283 283 283 283 283 282 281 281 280 280 280 279 279 279 278 277 277 277 277 276 276 275 275 274 275 275 275 276 276 277 277 276 276 277 276 276 277 281 281 282 282 277 273 273 275 277 278 278 278
289 289 288 288 287 286 286 286 286 285 284 284 283 283 283 283 282 281 281 280 280 279 279 279 278 278 278 278 277 277 276 276 276 275 274 273 273 274 274 275 275 276 276 276 276 276 276 276 275 274 279 280 281 281 280 275 278 278 278 277 277 277
285 285 285 286 286 286 286 286 285 285 284 283 283 283 282 282 281 280 280 279 279 278 278 277 277 277 277 276 276 275 275 274 274 273 272 272 273 274 274 274 274 274 275 275 275 275 274 275 275 273 276 279 280 280 281 279 278 279 278 277 277 277
285 286 286 285 285 286 286 286 285 284 283 283 283 281 281 281 280 280 279 278 277 277 276 276 276 275 275 275 275 274 273 273 272 272 272 273 273 274 273 273 273 273 273 273 274 274 273 273 272 275 273 278 279 280 280 280 279 280 279 277 276 277
285 285 283 284 285 285 285 285 285 283 282 282 280 280 280 279 279 278 277 276 275 274 274 274 273 273 273 273 273 273 273 272 272 272 272 273 273 273 272 272 272 272 271 271 271 272 272 272 271 273 276 276 278 279 280 280 280 280 279 278 277 277
284 283 282 282 283 284 284 284 284 281 281 279 278 279 279 278 277 276 274 273 273 273 273 272 272 271 271 271 272 272 272 271 271 271 272 272 272 272 271 271 271 270 270 270 270 270 271 272 271 271 273 277 277 278 279 279 280 280 280 277 277 278
279 280 280 278 279 280 280 281 282 281 280 277 278 278 278 276 275 274 273 272 272 272 272 271 270 270 270 271 271 271 271 271 271 271 271 271 270 270 270 269 269 269 269 269 269 270 271 271 269 270 272 275 276 277 278 279 279 278 278 278 277 279
279 279 278 278 277 278 277 277 277 279 277 277 278 277 276 275 274 273 272 272 271 271 271 270 270 270 270 269 270 270 270 271 271 271 270 269 269 268 268 268 268 268 268 268 269 270 271 270 270 270 272 274 275 276 277 277 276 277 278 277 277 278
279 278 277 278 276 276 275 275 276 275 276 276 276 276 275 274 273 272 272 271 272 271 271 271 271 270 270 270 270 270 270 270 270 270 269 269 268 268 267 267 267 267 268 268 270 270 269 269 269 271 273 274 275 276 276 276 276 276 276 276 276 277
277 277 277 277 274 274 274 273 272 273 275 275 274 275 274 273 273 272 271 272 272 271 271 271 271 270 270 269 269 269 269 269 268 268 268 268 268 268 268 266 267 268 268 269 269 269 269 269 270 271 276 276 277 276 275 275 275 275 275 277 278 275
276 276 276 275 273 273 273 271 271 272 273 273 274 275 274 273 272 272 272 272 271 271 270 270 269 269 269 268 268 267 268 271 272 271 269 269 271 273 275 273 267 269 269 268 268 270 269 269 271 276 277 276 276 277 277 277 277 277 276 277 276 273
274 274 274 274 272 272 271 271 271 271 272 273 274 274 274 273 272 272 272 271 271 270 270 269 268 268 268 268 267 268 268 269 272 275 275 274 275 276 277 277 276 276 275 271 268 271 275 275 276 276 275 275 275 276 276 276 276 276 276 275 271 267
273 274 274 273 272 271 270 270 270 270 270 272 273 274 273 273 273 272 271 271 270 269 269 268 268 268 267 267 267 267 268 268 267 267 273 274 275 276 276 275 274 275 275 275 274 272 270 274 274 275 274 274 275 275 275 274 274 274 274 273 271 264
274 274 273 272 271 270 270 269 269 269 269 270 271 272 272 272 272 272 271 270 269 268 268 268 267 267 267 266 266 266 267 267 267 266 266 269 274 275 274 273 274 274 274 274 274 274 273 273 273 274 274 274 274 274 273 272 273 273 272 270 264 261
272 272 272 271 270 270 269 269 269 269 270 270 271 272 272 272 272 272 271 269 269 268 267 267 267 267 266 266 266 266 266 267 268 268 266 264 263 265 269 271 272 272 273 273 273 273 273 273 273 273 273 273 273 272 271 270 268 271 271 268 261 261
271 271 271 271 270 270 269 269 268 268 267 268 269 270 270 270 269 269 268 267 267 268 267 267 267 266 266 266 265 264 264 264 264 265 265 265 265 264 262 259 261 268 271 268 269 271 272 272 272 272 272 272 272 271 269 267 261 261 261 262 261 262
270 270 270 270 270 270 269 269 267 266 265 266 266 267 268 268 268 267 267 267 267 267 267 267 267 267 266 265 265 265 264 264 264 263 263 263 263 262 261 259 257 257 267 269 269 270 271 271 272 271 271 270 270 269 267 259 259 260 261 261 261 261
Wind_Speed
4 4 4 3 3 4 5 4 4 4 4 5 7 8 6 7 6 6 5 6 6 6 7 7 7 6 7 7 8 7 9 7 6 6 6 5 5 6 6 6 6 5 5 6 5 5 5 5 5 4 5 5 5 5 5 4 4 4 4 3 3 2
4 4 5 5 5 4 4 5 4 5 4 5 4 5 5 6 6 6 7 5 7 6 6 6 7 7 8 7 8 7 7 7 7 7 6 6 5 5 5 5 6 6 6 5 6 6 5 6 4 4 5 5 6 4 5 3 4 4 3 3 3 2
2 2 1 1 2 1 3 4 6 5 5 5 6 9 7 7 6 6 6 6 6 8 8 7 7 7 7 7 7 8 7 6 6 6 6 5 5 5 6 6 6 6 6 6 6 6 5 6 5 4 5 6 5 4 4 3 3 3 3 2 3 3
3 1 1 1 3 3 4 3 5 5 5 5 6 7 7 8 6 7 7 6 7 8 8 7 5 7 7 8 7 8 6 6 6 6 5 6 4 5 6 6 5 5 6 6 5 5 5 5 5 4 5 5 5 4 3 3 3 3 3 4 5 5
4 4 4 3 3 3 4 4 4 5 5 6 6 8 6 6 7 7 7 7 8 8 8 7 6 7 7 9 6 7 7 6 5 5 7 6 5 5 5 6 6 6 6 6 6 6 5 5 5 5 5 4 4 3 3 2 3 3 4 4 3 3
3 4 4 4 4 4 5 4 4 5 5 6 7 8 7 7 7 7 8 8 8 8 8 8 7 8 8 8 7 8 6 7 6 6 7 6 6 8 5 5 6 6 6 7 6 5 5 6 5 5 5 4 3 3 3 3 3 2 1 1 2 3
5 6 5 5 5 4 4 5 6 6 5 5 7 7 6 7 7 8 8 9 9 8 9 8 7 8 8 8 7 8 7 7 7 6 7 7 7 6 7 6 5 6 6 7 6 6 6 5 5 5 5 4 3 2 1 1 0 0 0 0 1 3
5 5 5 5 5 6 5 4 5 6 6 6 5 8 7 6 6 8 9 9 10 8 9 8 8 9 8 8 8 8 7 7 7 7 5 7 8 6 6 7 5 6 6 6 5 5 5 5 5 5 4 3 2 2 1 1 1 1 1 1 1 2
7 6 5 5 5 5 6 6 6 5 6 6 5 6 7 7 8 8 8 8 9 9 8 8 8 8 8 8 8 7 7 7 7 7 7 5 7 8 7 5 7 4 6 5 5 6 5 5 5 4 3 1 1 0 1 1 1 2 2 2 3 3
6 7 7 5 5 4 4 4 6 6 7 8 6 6 7 6 8 8 8 9 8 8 9 8 8 8 8 7 7 7 7 7 7 7 6 6 8 7 7 7 7 5 5 5 6 5 5 5 4 3 1 0 0 0 1 1 2 3 3 3 3 3
8 7 6 6 6 7 6 6 5 4 4 5 6 7 7 7 9 9 9 8 9 8 8 8 6 6 7 7 8 8 7 7 6 6 6 7 7 6 6 5 5 6 6 6 6 5 4 4 3 1 1 1 1 1 2 3 3 3 3 4 4 4
7 7 7 8 9 9 9 8 7 7 8 7 6 7 7 8 9 10 9 9 9 8 8 8 7 8 7 8 8 7 7 6 6 7 7 6 6 5 5 5 5 6 6 6 5 4 4 3 2 4 6 5 3 3 3 3 3 3 3 3 4 4
8 8 10 12 13 13 11 8 7 7 7 7 8 8 7 7 9 8 9 10 8 8 8 8 8 8 9 8 8 7 8 8 7 7 7 5 5 5 4 5 6 6 5 5 4 4 4 3 3 8 8 8 8 4 3 3 4 4 3 3 3 4
12 13 15 13 11 10 10 10 10 9 10 9 9 9 8 8 9 10 9 9 9 9 10 9 9 9 8 8 8 8 7 8 8 7 6 6 6 4 4 6 5 5 4 5 5 5 4 4 6 8 9 9 9 7 3 3 3 3 3 3 3 3
16 17 14 11 12 13 13 11 11 12 11 11 9 8 9 10 10 10 10 10 10 10 9 9 9 9 8 7 7 7 7 8 7 7 6 6 4 4 6 4 5 5 5 5 6 5 4 3 6 9 9 9 9 8 5 3 2 3 3 3 3 3
12 13 16 16 14 12 9 9 10 9 8 9 8 10 10 11 10 10 11 10 9 9 9 9 9 9 8 8 7 7 7 7 7 5 5 5 5 6 5 5 6 5 6 5 5 4 3 3 6 9 10 9 8 7 6 2 3 2 3 3 3 3
15 13 11 12 13 11 10 9 8 8 9 9 10 8 10 9 11 10 10 11 9 9 9 9 9 10 9 8 8 7 7 7 7 6 5 5 5 5 5 5 5 5 4 5 4 4 3 3 8 9 9 8 7 7 5 2 2 2 2 3 3 3
16 17 18 11 11 11 11 11 9 10 10 8 10 9 8 10 10 11 10 10 10 10 10 11 10 10 9 9 8 8 8 7 6 7 5 6 5 5 5 4 5 4 4 3 3 4 3 4 9 9 9 8 8 7 2 1 2 2 3 3 3 3
15 13 8 10 12 12 12 11 11 11 11 11 9 10 10 10 11 11 11 11 10 10 10 10 11 11 10 9 10 9 8 8 7 5 4 7 6 6 5 4 3 3 3 3 3 3 2 3 6 9 9 9 9 4 2 2 2 2 3 3 3 3
5 7 12 12 12 12 10 11 12 12 12 12 10 11 10 10 11 10 11 11 10 10 10 9 10 11 10 9 10 9 7 6 5 5 4 7 7 6 4 3 4 3 3 3 3 2 2 2 6 9 9 9 10 7 3 3 2 2 2 3 3 4
8 8 8 11 12 11 12 13 14 13 13 12 12 11 12 12 11 12 12 11 10 9 9 9 9 10 10 10 9 8 9 7 7 6 6 6 6 5 4 3 4 4 4 3 2 4 3 3 5 9 9 9 10 6 2 4 3 3 3 3 4 5
10 10 13 16 16 13 14 14 13 14 13 12 11 12 13 13 11 9 7 7 8 8 7 7 9 9 10 10 9 7 7 6 7 6 7 6 5 5 5 4 4 4 3 3 3 4 3 4 4 6 10 9 9 11 5 3 3 4 6 5 5 5
12 15 16 13 12 13 14 14 14 14 13 13 13 14 11 7 7 7 7 7 7 7 7 6 7 9 7 7 9 8 7 5 7 7 7 7 5 6 5 5 4 4 3 3 3 4 4 4 4 5 9 9 9 10 8 1 4 4 5 5 6 6
5 5 5 7 12 13 13 14 15 13 12 12 14 12 9 10 10 9 9 9 9 7 7 7 6 6 8 7 8 9 7 5 6 6 7 6 6 7 6 5 4 4 3 3 3 3 3 3 5 3 7 8 9 9 11 5 4 7 6 6 5 6
8 9 10 9 11 12 12 14 14 12 12 14 13 9 10 10 10 10 10 9 9 8 8 7 7 7 6 7 7 9 9 6 7 6 6 7 7 7 6 5 4 4 4 3 2 1 1 2 3 6 3 6 8 9 10 12 9 13 6 6 7 7
7 8 7 9 10 11 12 15 15 13 14 13 8 9 9 9 9 9 9 9 8 8 7 7 6 6 5 7 7 7 9 8 6 6 6 6 6 7 7 4 4 5 4 2 0 1 2 3 2 5 4 5 8 9 11 12 13 13 8 7 6 7
10 8 7 7 9 9 11 10 14 14 15 10 10 11 12 11 10 10 9 9 9 8 7 7 6 6 5 5 7 9 8 8 7 7 5 6 7 7 7 5 4 4 4 2 3 3 3 2 3 3 3 8 8 10 11 12 13 13 14 8 6 7
5 7 8 5 5 6 7 7 9 16 11 9 10 11 11 12 12 11 10 9 9 9 8 9 7 6 5 5 5 5 6 8 7 8 7 7 7 6 6 5 5 4 4 4 4 3 2 2 1 1 2 3 5 7 10 12 12 13 13 12 9 14
8 9 9 10 6 7 6 6 5 7 9 11 10 11 11 11 11 11 10 10 9 8 8 9 8 7 6 5 5 4 5 5 6 7 7 8 8 7 5 5 5 5 5 6 5 3 1 0 1 2 2 3 2 3 5 6 7 10 10 7 6 8
9 10 9 10 7 5 5 5 6 7 9 8 9 10 11 11 11 12 11 11 9 8 8 8 7 8 8 6 6 6 5 4 5 7 7 8 8 8 7 6 6 6 6 6 5 3 2 0 0 2 2 3 3 4 4 4 5 5 5 6 6 6
8 8 9 8 5 5 6 5 5 7 9 9 8 10 11 10 9 8 9 9 8 8 7 7 8 8 10 9 7 5 5 6 6 6 5 2 4 6 7 7 6 7 6 5 5 4 3 1 0 2 4 5 7 6 5 4 5 5 4 8 12 7
6 8 8 6 6 6 7 7 7 8 8 9 9 10 12 11 10 10 10 9 8 8 8 9 9 8 9 9 6 8 5 3 5 3 4 4 5 9 8 8 6 6 5 5 3 4 4 2 2 4 6 6 7 7 9 8 9 10 8 10 12 7
6 6 7 7 6 6 6 7 7 8 8 9 10 11 12 12 12 10 9 9 9 10 10 12 10 5 8 7 5 9 9 7 4 7 7 5 6 9 12 10 9 9 7 6 2 1 6 3 3 5 5 6 6 7 7 8 8 9 10 10 6 5
8 9 10 7 7 7 6 7 6 7 7 8 9 9 10 11 12 12 11 10 9 10 9 6 6 6 7 6 5 8 9 8 8 4 5 7 9 11 10 8 7 7 7 7 7 5 1 4 4 4 4 4 5 6 7 7 8 9 10 11 8 4
8 7 6 6 7 7 7 8 7 6 6 7 7 8 10 10 8 9 9 9 9 10 10 8 6 7 7 8 12 10 8 9 9 10 7 5 8 9 8 7 7 6 7 7 8 8 6 4 3 4 4 5 6 6 7 6 8 9 10 11 7 4
6 6 7 7 8 8 8 9 9 9 9 8 8 9 10 10 8 8 9 11 11 11 9 8 7 8 8 5 9 11 9 8 8 9 10 10 7 3 3 4 5 5 7 8 8 7 6 5 5 5 5 5 6 7 7 6 5 7 11 9 4 3
7 7 8 10 10 10 11 11 8 7 7 7 8 8 8 8 7 6 7 9 10 10 10 9 8 11 7 8 10 10 9 9 7 8 10 11 11 10 9 5 1 1 7 5 5 6 6 5 6 6 6 6 7 7 7 7 5 4 5 5 4 4
7 7 7 9 9 10 9 9 7 8 7 8 8 9 9 9 8 8 8 9 10 8 8 9 8 6 9 10 11 9 7 7 8 8 7 6 6 8 8 4 4 2 1 6 6 6 6 6 7 6 6 7 8 7 7 4 4 3 2 2 3 2
Wind_Direction
177 177 183 196 188 189 188 181 170 163 165 165 158 158 155 149 140 129 119 124 126 130 128 125 117 116 114 111 116 117 116 122 122 119 125 122 122 116 112 104 100 97 85 89 83 73 72 63 58 59 59 68 71 60 69 42 67 76 54 360 39 12
189 177 171 174 178 175 172 156 148 149 144 131 119 110 115 117 122 124 119 114 115 111 102 93 105 111 117 123 123 119 121 129 127 127 122 127 114 108 112 111 112 109 102 95 96 89 82 76 61 67 70 66 66 64 60 36 63 68 66 12 2 18
203 206 199 137 100 101 131 144 145 141 133 131 140 134 130 126 128 123 123 118 114 116 112 113 112 112 112 109 113 114 117 120 119 117 126 113 109 118 108 109 109 106 104 99 92 93 91 87 75 64 75 70 66 48 59 44 56 61 31 44 13 15
190 165 92 85 101 103 111 113 122 134 139 142 135 129 135 135 135 129 127 122 122 118 117 114 112 115 112 110 109 111 115 116 115 124 109 105 121 109 110 104 104 101 98 94 92 86 82 82 81 68 73 72 63 42 33 50 44 46 28 32 13 359
171 160 149 134 124 123 122 124 132 135 135 137 141 136 141 138 134 125 124 123 122 117 115 116 114 114 112 110 112 114 115 114 113 114 112 115 111 92 100 109 102 101 97 90 88 86 79 76 76 65 79 81 83 68 35 45 55 50 29 16 352 331
138 135 143 137 135 143 146 141 134 135 143 145 139 140 141 134 131 131 123 118 115 118 117 117 119 114 118 118 123 121 119 116 114 115 112 117 108 103 97 99 106 98 97 96 89 86 83 72 70 67 68 74 76 58 38 19 33 43 40 3 319 321
166 178 172 166 163 159 156 154 155 151 150 151 146 142 143 134 133 128 125 125 124 124 122 123 124 123 124 125 125 122 121 119 119 114 119 115 105 110 110 95 93 99 96 96 96 88 79 77 74 70 57 49 49 61 40 1 354 261 310 273 287 300
187 182 180 172 173 168 163 163 162 159 155 159 150 142 139 137 129 130 130 132 130 131 128 131 129 131 132 130 127 128 127 124 120 119 111 118 117 109 100 105 93 102 100 94 94 92 86 78 71 68 60 43 29 22 346 312 299 289 295 314 326 334
197 190 186 183 176 174 170 166 170 166 156 150 147 143 139 140 134 133 131 133 132 134 136 138 137 135 134 132 131 128 124 122 126 121 121 126 118 113 108 103 99 87 97 94 88 78 75 70 67 65 56 38 5 302 293 298 304 330 350 351 341 337
193 191 186 177 180 179 177 179 174 169 164 157 151 143 139 138 134 134 134 136 136 138 140 139 137 134 133 132 128 126 127 126 123 122 126 121 107 107 110 112 107 103 91 86 81 71 72 74 72 67 65 251 247 262 290 305 336 342 346 344 337 335
193 186 184 184 175 182 183 177 174 159 151 151 151 148 148 145 139 140 140 139 140 142 139 134 131 128 129 127 126 127 126 122 121 119 112 103 101 98 105 106 107 103 86 71 73 70 69 88 87 83 24 19 336 336 338 331 334 337 338 334 334 331
180 187 183 186 188 186 184 180 178 173 163 161 157 152 156 145 147 143 144 142 142 141 139 136 134 134 132 129 128 126 122 119 113 104 95 90 95 100 103 98 86 85 87 85 73 80 91 91 82 17 19 15 8 351 343 337 328 332 331 329 325 319
186 186 194 197 194 191 183 178 171 164 162 164 162 159 159 149 144 145 145 145 146 143 140 138 140 139 136 136 128 129 125 118 112 101 97 94 91 94 91 91 84 80 82 87 87 77 68 58 30 14 14 7 360 5 351 338 326 328 323 312 304 302
192 197 200 200 196 187 181 177 175 170 173 168 167 162 156 151 150 150 150 149 148 149 147 145 142 136 137 135 132 128 122 115 111 111 113 111 102 93 88 76 82 78 71 72 69 63 49 33 9 10 7 1 357 351 3 355 330 309 304 294 293 290
200 201 200 192 193 191 190 175 170 180 173 169 165 151 157 157 156 153 151 155 153 152 147 146 140 136 134 132 128 124 117 115 113 115 114 110 115 99 81 79 73 66 61 62 55 46 34 27 358 6 1 356 354 2 41 355 314 300 290 296 299 301
206 204 199 196 192 188 174 178 175 167 159 155 152 161 164 158 159 157 155 154 155 151 148 145 140 136 135 133 127 124 121 118 117 114 113 113 97 92 86 68 67 59 55 54 56 42 27 20 354 1 357 359 2 12 17 317 301 297 303 311 314 318
205 200 193 195 185 172 163 169 167 153 152 160 162 168 162 164 156 158 158 155 154 151 150 146 142 137 137 134 130 126 123 122 119 112 110 104 98 92 84 71 66 54 56 49 49 50 23 4 357 358 1 2 359 15 3 304 298 316 325 315 315 317
201 195 200 179 160 171 172 168 156 157 161 159 164 163 168 162 162 160 159 157 159 159 156 149 144 141 140 138 135 132 129 124 125 123 120 104 92 83 87 64 63 55 47 46 52 50 25 352 356 359 4 2 0 16 335 321 344 344 334 329 327 327
202 197 160 160 171 165 172 161 157 156 156 164 169 167 166 167 168 168 165 161 160 158 157 154 147 145 144 144 139 137 136 132 125 116 115 103 94 91 79 83 76 74 60 41 44 50 20 5 348 359 5 1 359 19 350 358 359 339 344 339 323 326
157 150 166 164 169 170 159 160 160 158 162 167 166 168 171 174 175 170 166 165 162 159 157 156 151 146 146 148 145 140 133 122 111 110 108 114 115 99 96 91 80 64 68 57 31 45 47 14 349 358 2 0 2 19 10 352 359 341 340 337 332 337
160 151 145 156 164 172 161 159 158 160 170 171 171 173 174 181 175 173 172 167 159 156 153 152 151 147 147 144 142 140 137 134 127 119 103 99 98 102 103 87 84 73 61 66 50 26 48 26 357 349 2 3 6 17 22 3 347 335 347 346 341 334
126 148 163 176 181 163 162 159 163 169 170 173 171 178 185 183 176 164 147 143 147 147 146 148 146 146 144 140 133 130 126 126 118 114 109 98 100 106 96 91 88 94 80 71 58 39 39 28 356 339 359 8 10 12 18 339 344 349 349 349 339 333
168 175 181 176 159 160 162 163 163 174 176 171 176 189 181 156 138 136 138 137 138 139 141 138 144 140 134 135 134 126 118 117 120 117 110 110 102 98 93 94 102 105 96 71 57 59 26 20 346 326 354 7 10 7 7 311 346 342 349 337 336 339
158 149 153 161 161 163 165 167 173 173 170 174 186 179 147 142 144 142 145 149 147 143 138 135 127 125 129 130 128 124 115 108 105 107 109 106 108 109 107 105 110 115 97 76 58 51 23 344 330 318 340 3 3 5 6 15 354 354 344 332 332 329
168 172 167 160 163 166 169 168 171 173 173 185 182 152 147 147 147 147 147 143 140 140 137 134 134 132 132 131 129 126 120 118 109 103 105 114 116 117 119 120 122 110 86 71 35 47 343 309 300 334 340 344 3 3 9 5 359 353 349 339 332 332
166 161 162 163 167 171 172 174 175 176 179 182 141 139 137 139 141 140 139 141 140 136 134 132 125 121 121 128 127 120 122 120 114 106 110 117 124 130 130 123 114 94 95 93 248 266 262 268 270 298 339 4 3 5 3 357 355 353 349 344 330 328
165 154 157 170 170 176 178 181 176 171 178 166 146 149 149 146 144 143 144 143 142 138 135 125 124 124 122 128 133 132 131 126 130 118 119 126 122 145 127 108 104 113 128 150 204 223 236 242 245 255 321 9 6 2 357 355 354 353 350 344 331 321
129 150 158 170 177 173 179 182 176 176 172 143 151 149 147 145 145 145 147 145 143 144 139 129 124 121 124 125 122 126 133 139 140 131 128 133 144 127 119 123 126 135 156 183 201 206 209 237 234 299 309 324 348 351 356 355 354 349 345 340 327 328
154 168 171 174 186 175 176 169 170 157 140 158 151 148 146 147 147 144 147 148 145 145 145 142 143 138 131 125 121 116 118 124 125 135 141 143 125 125 130 139 153 158 173 185 187 179 171 34 340 311 288 297 306 327 353 351 347 339 337 331 316 320
173 173 176 182 181 172 162 159 153 144 145 146 149 145 145 148 154 154 155 153 152 153 155 152 147 144 142 146 142 131 123 102 142 152 150 151 152 145 153 159 170 177 183 179 160 139 132 166 262 278 293 321 352 355 353 344 333 331 333 332 326 340
177 182 179 177 165 160 157 150 137 141 149 148 148 151 149 151 147 144 147 151 150 155 157 156 159 157 142 129 103 76 74 130 160 148 123 135 129 144 150 164 174 188 187 153 138 141 167 168 239 275 348 1 360 353 354 345 340 335 337 338 345 2
183 177 182 174 167 165 160 154 150 153 153 152 156 157 155 153 150 154 162 162 161 158 158 157 150 147 142 128 130 129 125 146 146 147 128 158 188 195 187 167 186 189 158 126 159 158 165 173 234 349 12 5 1 0 359 355 354 357 355 355 11 14
182 181 183 176 163 170 166 161 161 159 162 163 165 165 163 160 161 166 165 165 173 170 162 156 141 148 125 133 131 148 136 124 113 134 138 135 172 189 181 164 153 140 137 142 161 101 111 95 49 35 17 15 13 12 8 11 15 13 14 12 36 11
186 190 190 170 172 170 168 164 172 170 169 171 170 171 169 175 170 171 174 171 165 162 166 139 147 137 146 136 155 163 146 141 133 114 136 155 165 162 156 151 140 131 128 129 129 136 83 81 76 48 41 39 31 29 27 33 36 33 34 29 43 49
192 187 173 168 172 172 171 174 180 175 175 177 177 173 177 184 187 172 164 162 163 163 160 165 158 159 155 156 160 165 163 157 156 152 150 158 166 158 156 154 145 133 132 121 112 104 110 107 85 70 66 57 49 47 44 46 48 48 44 45 36 52
177 180 176 176 179 179 179 188 188 181 181 177 180 182 186 187 190 181 172 169 170 164 168 172 175 159 155 160 159 161 167 172 169 163 157 151 155 151 149 148 140 136 127 122 115 108 109 107 103 94 82 71 63 61 54 55 47 54 50 57 57 19
173 181 186 182 183 187 194 198 188 174 170 176 179 181 183 184 176 166 166 167 168 173 175 175 170 149 145 162 168 170 174 168 170 167 164 168 169 169 170 185 206 149 137 119 106 110 115 112 107 96 84 79 76 70 76 74 53 40 14 26 26 23
181 189 186 189 193 198 199 204 176 167 169 174 180 183 185 180 174 170 172 172 178 176 176 175 169 168 164 167 167 159 165 163 164 168 171 160 150 153 153 165 188 214 139 123 119 120 121 118 114 102 95 90 85 81 90 77 69 77 39 34 352 358